Multibeam Report for SKQ201818S


Ship Name: Sikuliaq
Chief Scientist: Ashjian, Carin
Woods Hole Oceanographic Institution
Source Organization: Rolling Deck to Repository
Start Date: 2018-08-03
End Date: 2018-08-27


View ISO Metadata

Visit the full NCEI Bathymetry Viewer


Multibeam Bathymetry

Cruise Details

Project: Shelf Break Ecology
Instrument: Kongsberg EM302

Data Quality

Number of Files: 528
Number of Records: 1787499
BATHYMETRY DATA Quantity Percentage
Number of Beams 772199136 100%
Number of Good Beams 720154075 93.26%
Number of Zero Beams 0 0%
Number of Flagged Beams 52045061 6.74%

Navigation Totals

Total Time: 505.5034 hours
Total Track Length: 4474.9411 km
Average Speed: 8.852 km/hr (4.7797 knots)

Cruise Bounds

Northern Extent: 72.21018
Southern Extent: 64.37738
Western Extent: -168.48227
Eastern Extent: -149.23428

Limits

Minimum Sonar Depth 3.1436 Maximum Sonar Depth 6.48
Minimum Altitude 0 Maximum Altitude 1553.1777
Minimum Depth 10.9011 Maximum Depth 1695.6099

File Information

Full Resolution Bathymetry as collected (raw): 521

Files File Size Description
0000_20180803_180521_Sikuliaq.all.mb58.gz 108.90MB Kongsberg multibeam vendor format
0000_20180817_080345_Sikuliaq.all.mb58.gz 1.19MB Kongsberg multibeam vendor format
0001_20180803_190521_Sikuliaq.all.mb58.gz 63.64MB Kongsberg multibeam vendor format
0002_20180803_200521_Sikuliaq.all.mb58.gz 63.47MB Kongsberg multibeam vendor format
0003_20180803_210521_Sikuliaq.all.mb58.gz 63.65MB Kongsberg multibeam vendor format
0004_20180803_220521_Sikuliaq.all.mb58.gz 63.96MB Kongsberg multibeam vendor format
0005_20180803_230521_Sikuliaq.all.mb58.gz 64.08MB Kongsberg multibeam vendor format
0006_20180804_000521_Sikuliaq.all.mb58.gz 63.95MB Kongsberg multibeam vendor format
0007_20180804_010521_Sikuliaq.all.mb58.gz 64.07MB Kongsberg multibeam vendor format
0008_20180804_020521_Sikuliaq.all.mb58.gz 64.10MB Kongsberg multibeam vendor format
0009_20180804_030521_Sikuliaq.all.mb58.gz 63.67MB Kongsberg multibeam vendor format
0010_20180804_040521_Sikuliaq.all.mb58.gz 62.67MB Kongsberg multibeam vendor format
0011_20180804_050521_Sikuliaq.all.mb58.gz 71.76MB Kongsberg multibeam vendor format
0012_20180804_060521_Sikuliaq.all.mb58.gz 99.37MB Kongsberg multibeam vendor format
0013_20180804_070521_Sikuliaq.all.mb58.gz 98.52MB Kongsberg multibeam vendor format
0014_20180804_080521_Sikuliaq.all.mb58.gz 98.49MB Kongsberg multibeam vendor format
0015_20180804_090521_Sikuliaq.all.mb58.gz 98.77MB Kongsberg multibeam vendor format
0016_20180804_100522_Sikuliaq.all.mb58.gz 98.63MB Kongsberg multibeam vendor format
0017_20180804_110522_Sikuliaq.all.mb58.gz 98.77MB Kongsberg multibeam vendor format
0018_20180804_120522_Sikuliaq.all.mb58.gz 96.55MB Kongsberg multibeam vendor format
0019_20180804_130522_Sikuliaq.all.mb58.gz 63.42MB Kongsberg multibeam vendor format
0020_20180804_140522_Sikuliaq.all.mb58.gz 63.41MB Kongsberg multibeam vendor format
0021_20180804_150522_Sikuliaq.all.mb58.gz 63.07MB Kongsberg multibeam vendor format
0022_20180804_160522_Sikuliaq.all.mb58.gz 62.68MB Kongsberg multibeam vendor format
0023_20180804_170522_Sikuliaq.all.mb58.gz 62.20MB Kongsberg multibeam vendor format
0024_20180804_180522_Sikuliaq.all.mb58.gz 62.09MB Kongsberg multibeam vendor format
0025_20180804_190522_Sikuliaq.all.mb58.gz 61.85MB Kongsberg multibeam vendor format
0026_20180804_200522_Sikuliaq.all.mb58.gz 84.41MB Kongsberg multibeam vendor format
0027_20180804_210522_Sikuliaq.all.mb58.gz 97.84MB Kongsberg multibeam vendor format
0028_20180804_220522_Sikuliaq.all.mb58.gz 98.36MB Kongsberg multibeam vendor format
0029_20180804_230522_Sikuliaq.all.mb58.gz 98.01MB Kongsberg multibeam vendor format
0030_20180805_000522_Sikuliaq.all.mb58.gz 98.29MB Kongsberg multibeam vendor format
0031_20180805_010522_Sikuliaq.all.mb58.gz 98.98MB Kongsberg multibeam vendor format
0032_20180805_020522_Sikuliaq.all.mb58.gz 99.05MB Kongsberg multibeam vendor format
0033_20180805_030522_Sikuliaq.all.mb58.gz 99.22MB Kongsberg multibeam vendor format
0034_20180805_040522_Sikuliaq.all.mb58.gz 99.26MB Kongsberg multibeam vendor format
0035_20180805_050522_Sikuliaq.all.mb58.gz 99.19MB Kongsberg multibeam vendor format
0036_20180805_060522_Sikuliaq.all.mb58.gz 99.16MB Kongsberg multibeam vendor format
0037_20180805_070522_Sikuliaq.all.mb58.gz 99.50MB Kongsberg multibeam vendor format
0038_20180805_080522_Sikuliaq.all.mb58.gz 99.67MB Kongsberg multibeam vendor format
0039_20180805_090522_Sikuliaq.all.mb58.gz 99.74MB Kongsberg multibeam vendor format
0040_20180805_100522_Sikuliaq.all.mb58.gz 99.69MB Kongsberg multibeam vendor format
0041_20180805_110522_Sikuliaq.all.mb58.gz 99.79MB Kongsberg multibeam vendor format
0042_20180805_120522_Sikuliaq.all.mb58.gz 99.86MB Kongsberg multibeam vendor format
0043_20180805_130522_Sikuliaq.all.mb58.gz 99.89MB Kongsberg multibeam vendor format
0044_20180805_140522_Sikuliaq.all.mb58.gz 99.75MB Kongsberg multibeam vendor format
0045_20180805_150523_Sikuliaq.all.mb58.gz 99.61MB Kongsberg multibeam vendor format
0046_20180805_160523_Sikuliaq.all.mb58.gz 99.60MB Kongsberg multibeam vendor format
0047_20180805_170523_Sikuliaq.all.mb58.gz 99.64MB Kongsberg multibeam vendor format
0048_20180805_180523_Sikuliaq.all.mb58.gz 99.58MB Kongsberg multibeam vendor format
0049_20180805_190523_Sikuliaq.all.mb58.gz 99.68MB Kongsberg multibeam vendor format
0050_20180805_200523_Sikuliaq.all.mb58.gz 99.74MB Kongsberg multibeam vendor format
0051_20180805_210523_Sikuliaq.all.mb58.gz 99.77MB Kongsberg multibeam vendor format
0052_20180805_220523_Sikuliaq.all.mb58.gz 99.66MB Kongsberg multibeam vendor format
0053_20180805_230523_Sikuliaq.all.mb58.gz 100.13MB Kongsberg multibeam vendor format
0054_20180806_000523_Sikuliaq.all.mb58.gz 100.09MB Kongsberg multibeam vendor format
0055_20180806_010523_Sikuliaq.all.mb58.gz 100.12MB Kongsberg multibeam vendor format
0056_20180806_020523_Sikuliaq.all.mb58.gz 100.03MB Kongsberg multibeam vendor format
0057_20180806_030523_Sikuliaq.all.mb58.gz 100.05MB Kongsberg multibeam vendor format
0058_20180806_040523_Sikuliaq.all.mb58.gz 100.07MB Kongsberg multibeam vendor format
0059_20180806_050523_Sikuliaq.all.mb58.gz 100.12MB Kongsberg multibeam vendor format
0060_20180806_060523_Sikuliaq.all.mb58.gz 100.11MB Kongsberg multibeam vendor format
0061_20180806_070523_Sikuliaq.all.mb58.gz 100.03MB Kongsberg multibeam vendor format
0062_20180806_080523_Sikuliaq.all.mb58.gz 100.07MB Kongsberg multibeam vendor format
0063_20180806_090523_Sikuliaq.all.mb58.gz 100.00MB Kongsberg multibeam vendor format
0064_20180806_100523_Sikuliaq.all.mb58.gz 100.09MB Kongsberg multibeam vendor format
0065_20180806_110523_Sikuliaq.all.mb58.gz 99.86MB Kongsberg multibeam vendor format
0066_20180806_120523_Sikuliaq.all.mb58.gz 99.92MB Kongsberg multibeam vendor format
0067_20180806_130523_Sikuliaq.all.mb58.gz 99.82MB Kongsberg multibeam vendor format
0068_20180806_140523_Sikuliaq.all.mb58.gz 99.84MB Kongsberg multibeam vendor format
0069_20180806_150523_Sikuliaq.all.mb58.gz 99.59MB Kongsberg multibeam vendor format
0070_20180806_160523_Sikuliaq.all.mb58.gz 99.03MB Kongsberg multibeam vendor format
0071_20180806_170524_Sikuliaq.all.mb58.gz 98.16MB Kongsberg multibeam vendor format
0072_20180806_180524_Sikuliaq.all.mb58.gz 98.23MB Kongsberg multibeam vendor format
0073_20180806_190524_Sikuliaq.all.mb58.gz 85.92MB Kongsberg multibeam vendor format
0074_20180806_200524_Sikuliaq.all.mb58.gz 97.08MB Kongsberg multibeam vendor format
0075_20180806_210524_Sikuliaq.all.mb58.gz 93.93MB Kongsberg multibeam vendor format
0076_20180806_220524_Sikuliaq.all.mb58.gz 113.97MB Kongsberg multibeam vendor format
0077_20180806_230524_Sikuliaq.all.mb58.gz 90.31MB Kongsberg multibeam vendor format
0078_20180807_000524_Sikuliaq.all.mb58.gz 90.34MB Kongsberg multibeam vendor format
0079_20180807_010524_Sikuliaq.all.mb58.gz 90.05MB Kongsberg multibeam vendor format
0080_20180807_020524_Sikuliaq.all.mb58.gz 89.29MB Kongsberg multibeam vendor format
0081_20180807_030524_Sikuliaq.all.mb58.gz 91.03MB Kongsberg multibeam vendor format
0082_20180807_040524_Sikuliaq.all.mb58.gz 91.89MB Kongsberg multibeam vendor format
0083_20180807_050524_Sikuliaq.all.mb58.gz 93.69MB Kongsberg multibeam vendor format
0084_20180807_060524_Sikuliaq.all.mb58.gz 92.19MB Kongsberg multibeam vendor format
0085_20180807_070524_Sikuliaq.all.mb58.gz 90.06MB Kongsberg multibeam vendor format
0086_20180807_080524_Sikuliaq.all.mb58.gz 88.07MB Kongsberg multibeam vendor format
0087_20180807_090524_Sikuliaq.all.mb58.gz 93.37MB Kongsberg multibeam vendor format
0088_20180807_100524_Sikuliaq.all.mb58.gz 98.27MB Kongsberg multibeam vendor format
0089_20180807_110524_Sikuliaq.all.mb58.gz 98.83MB Kongsberg multibeam vendor format
0090_20180807_120524_Sikuliaq.all.mb58.gz 98.52MB Kongsberg multibeam vendor format
0091_20180807_130524_Sikuliaq.all.mb58.gz 98.06MB Kongsberg multibeam vendor format
0092_20180807_140524_Sikuliaq.all.mb58.gz 97.99MB Kongsberg multibeam vendor format
0093_20180807_150524_Sikuliaq.all.mb58.gz 96.69MB Kongsberg multibeam vendor format
0094_20180807_160524_Sikuliaq.all.mb58.gz 95.81MB Kongsberg multibeam vendor format
0095_20180807_170524_Sikuliaq.all.mb58.gz 94.51MB Kongsberg multibeam vendor format
0096_20180807_180524_Sikuliaq.all.mb58.gz 93.22MB Kongsberg multibeam vendor format
0097_20180807_190525_Sikuliaq.all.mb58.gz 93.55MB Kongsberg multibeam vendor format
0098_20180807_200525_Sikuliaq.all.mb58.gz 95.06MB Kongsberg multibeam vendor format
0099_20180807_210525_Sikuliaq.all.mb58.gz 96.06MB Kongsberg multibeam vendor format
0100_20180807_220525_Sikuliaq.all.mb58.gz 95.65MB Kongsberg multibeam vendor format
0101_20180807_230525_Sikuliaq.all.mb58.gz 96.67MB Kongsberg multibeam vendor format
0102_20180808_000525_Sikuliaq.all.mb58.gz 95.62MB Kongsberg multibeam vendor format
0103_20180808_010525_Sikuliaq.all.mb58.gz 91.96MB Kongsberg multibeam vendor format
0104_20180808_020525_Sikuliaq.all.mb58.gz 82.54MB Kongsberg multibeam vendor format
0105_20180808_030525_Sikuliaq.all.mb58.gz 26.45MB Kongsberg multibeam vendor format
0106_20180808_040525_Sikuliaq.all.mb58.gz 24.56MB Kongsberg multibeam vendor format
0107_20180808_050525_Sikuliaq.all.mb58.gz 4.94MB Kongsberg multibeam vendor format
0108_20180808_051811_Sikuliaq.all.mb58.gz 88.58MB Kongsberg multibeam vendor format
0109_20180808_061811_Sikuliaq.all.mb58.gz 90.86MB Kongsberg multibeam vendor format
0110_20180808_071811_Sikuliaq.all.mb58.gz 93.95MB Kongsberg multibeam vendor format
0111_20180808_081811_Sikuliaq.all.mb58.gz 95.56MB Kongsberg multibeam vendor format
0112_20180808_091811_Sikuliaq.all.mb58.gz 96.99MB Kongsberg multibeam vendor format
0113_20180808_101811_Sikuliaq.all.mb58.gz 98.35MB Kongsberg multibeam vendor format
0114_20180808_111811_Sikuliaq.all.mb58.gz 98.71MB Kongsberg multibeam vendor format
0115_20180808_121811_Sikuliaq.all.mb58.gz 100.08MB Kongsberg multibeam vendor format
0116_20180808_131811_Sikuliaq.all.mb58.gz 99.62MB Kongsberg multibeam vendor format
0117_20180808_141811_Sikuliaq.all.mb58.gz 99.72MB Kongsberg multibeam vendor format
0118_20180808_151811_Sikuliaq.all.mb58.gz 100.07MB Kongsberg multibeam vendor format
0119_20180808_161811_Sikuliaq.all.mb58.gz 67.29MB Kongsberg multibeam vendor format
0120_20180808_171811_Sikuliaq.all.mb58.gz 64.26MB Kongsberg multibeam vendor format
0121_20180808_181811_Sikuliaq.all.mb58.gz 64.27MB Kongsberg multibeam vendor format
0122_20180808_191811_Sikuliaq.all.mb58.gz 64.24MB Kongsberg multibeam vendor format
0123_20180808_201811_Sikuliaq.all.mb58.gz 63.12MB Kongsberg multibeam vendor format
0124_20180808_211811_Sikuliaq.all.mb58.gz 62.05MB Kongsberg multibeam vendor format
0125_20180808_221811_Sikuliaq.all.mb58.gz 61.68MB Kongsberg multibeam vendor format
0126_20180808_231811_Sikuliaq.all.mb58.gz 61.68MB Kongsberg multibeam vendor format
0127_20180809_001811_Sikuliaq.all.mb58.gz 86.18MB Kongsberg multibeam vendor format
0128_20180809_011811_Sikuliaq.all.mb58.gz 96.78MB Kongsberg multibeam vendor format
0129_20180809_021811_Sikuliaq.all.mb58.gz 90.46MB Kongsberg multibeam vendor format
0130_20180809_031812_Sikuliaq.all.mb58.gz 69.07MB Kongsberg multibeam vendor format
0131_20180809_151229_Sikuliaq.all.mb58.gz 91.60MB Kongsberg multibeam vendor format
0132_20180809_161229_Sikuliaq.all.mb58.gz 94.94MB Kongsberg multibeam vendor format
0133_20180809_171230_Sikuliaq.all.mb58.gz 93.47MB Kongsberg multibeam vendor format
0134_20180809_181230_Sikuliaq.all.mb58.gz 93.29MB Kongsberg multibeam vendor format
0135_20180809_191230_Sikuliaq.all.mb58.gz 93.01MB Kongsberg multibeam vendor format
0136_20180809_201230_Sikuliaq.all.mb58.gz 92.89MB Kongsberg multibeam vendor format
0137_20180809_211230_Sikuliaq.all.mb58.gz 92.01MB Kongsberg multibeam vendor format
0138_20180809_221230_Sikuliaq.all.mb58.gz 48.98MB Kongsberg multibeam vendor format
0139_20180810_001236_Sikuliaq.all.mb58.gz 98.51MB Kongsberg multibeam vendor format
0140_20180810_011236_Sikuliaq.all.mb58.gz 97.80MB Kongsberg multibeam vendor format
0141_20180810_021236_Sikuliaq.all.mb58.gz 98.60MB Kongsberg multibeam vendor format
0142_20180810_031236_Sikuliaq.all.mb58.gz 69.65MB Kongsberg multibeam vendor format
0143_20180810_041236_Sikuliaq.all.mb58.gz 64.15MB Kongsberg multibeam vendor format
0144_20180810_051236_Sikuliaq.all.mb58.gz 64.35MB Kongsberg multibeam vendor format
0145_20180810_061236_Sikuliaq.all.mb58.gz 63.87MB Kongsberg multibeam vendor format
0146_20180810_071237_Sikuliaq.all.mb58.gz 62.10MB Kongsberg multibeam vendor format
0147_20180810_081236_Sikuliaq.all.mb58.gz 61.70MB Kongsberg multibeam vendor format
0148_20180810_091237_Sikuliaq.all.mb58.gz 61.57MB Kongsberg multibeam vendor format
0149_20180810_101237_Sikuliaq.all.mb58.gz 95.70MB Kongsberg multibeam vendor format
0150_20180810_111237_Sikuliaq.all.mb58.gz 97.72MB Kongsberg multibeam vendor format
0151_20180810_121237_Sikuliaq.all.mb58.gz 97.54MB Kongsberg multibeam vendor format
0152_20180810_131237_Sikuliaq.all.mb58.gz 95.33MB Kongsberg multibeam vendor format
0153_20180810_141237_Sikuliaq.all.mb58.gz 95.14MB Kongsberg multibeam vendor format
0154_20180810_151237_Sikuliaq.all.mb58.gz 16.73MB Kongsberg multibeam vendor format
0155_20180810_181102_Sikuliaq.all.mb58.gz 96.83MB Kongsberg multibeam vendor format
0156_20180810_191103_Sikuliaq.all.mb58.gz 96.99MB Kongsberg multibeam vendor format
0157_20180810_201103_Sikuliaq.all.mb58.gz 96.51MB Kongsberg multibeam vendor format
0158_20180810_211103_Sikuliaq.all.mb58.gz 79.56MB Kongsberg multibeam vendor format
0159_20180810_231745_Sikuliaq.all.mb58.gz 89.37MB Kongsberg multibeam vendor format
0160_20180811_001746_Sikuliaq.all.mb58.gz 53.89MB Kongsberg multibeam vendor format
0161_20180811_035606_Sikuliaq.all.mb58.gz 85.80MB Kongsberg multibeam vendor format
0162_20180811_045606_Sikuliaq.all.mb58.gz 87.06MB Kongsberg multibeam vendor format
0163_20180811_055606_Sikuliaq.all.mb58.gz 87.54MB Kongsberg multibeam vendor format
0164_20180811_065606_Sikuliaq.all.mb58.gz 77.51MB Kongsberg multibeam vendor format
0165_20180811_075606_Sikuliaq.all.mb58.gz 64.07MB Kongsberg multibeam vendor format
0166_20180811_085606_Sikuliaq.all.mb58.gz 62.94MB Kongsberg multibeam vendor format
0167_20180811_095606_Sikuliaq.all.mb58.gz 61.95MB Kongsberg multibeam vendor format
0168_20180811_105606_Sikuliaq.all.mb58.gz 61.94MB Kongsberg multibeam vendor format
0169_20180811_115606_Sikuliaq.all.mb58.gz 61.94MB Kongsberg multibeam vendor format
0170_20180811_125606_Sikuliaq.all.mb58.gz 61.77MB Kongsberg multibeam vendor format
0171_20180811_135606_Sikuliaq.all.mb58.gz 83.87MB Kongsberg multibeam vendor format
0172_20180811_145606_Sikuliaq.all.mb58.gz 96.58MB Kongsberg multibeam vendor format
0173_20180811_155606_Sikuliaq.all.mb58.gz 96.19MB Kongsberg multibeam vendor format
0174_20180811_165606_Sikuliaq.all.mb58.gz 96.80MB Kongsberg multibeam vendor format
0175_20180811_175606_Sikuliaq.all.mb58.gz 95.38MB Kongsberg multibeam vendor format
0176_20180811_185606_Sikuliaq.all.mb58.gz 91.40MB Kongsberg multibeam vendor format
0177_20180811_195606_Sikuliaq.all.mb58.gz 90.74MB Kongsberg multibeam vendor format
0178_20180811_205606_Sikuliaq.all.mb58.gz 90.42MB Kongsberg multibeam vendor format
0179_20180811_215607_Sikuliaq.all.mb58.gz 89.85MB Kongsberg multibeam vendor format
0180_20180811_225606_Sikuliaq.all.mb58.gz 89.31MB Kongsberg multibeam vendor format
0181_20180811_235606_Sikuliaq.all.mb58.gz 90.20MB Kongsberg multibeam vendor format
0182_20180812_005606_Sikuliaq.all.mb58.gz 81.88MB Kongsberg multibeam vendor format
0183_20180812_015559_Sikuliaq.all.mb58.gz 3.15MB Kongsberg multibeam vendor format
0184_20180812_023303_Sikuliaq.all.mb58.gz 60.37MB Kongsberg multibeam vendor format
0185_20180812_045512_Sikuliaq.all.mb58.gz 0.93MB Kongsberg multibeam vendor format
0186_20180812_164110_Sikuliaq.all.mb58.gz 93.53MB Kongsberg multibeam vendor format
0187_20180812_174110_Sikuliaq.all.mb58.gz 89.93MB Kongsberg multibeam vendor format
0188_20180812_184110_Sikuliaq.all.mb58.gz 90.55MB Kongsberg multibeam vendor format
0189_20180812_194110_Sikuliaq.all.mb58.gz 71.29MB Kongsberg multibeam vendor format
0190_20180812_204112_Sikuliaq.all.mb58.gz 52.43MB Kongsberg multibeam vendor format
0191_20180812_214112_Sikuliaq.all.mb58.gz 16.76MB Kongsberg multibeam vendor format
0192_20180812_220350_Sikuliaq.all.mb58.gz 51.48MB Kongsberg multibeam vendor format
0193_20180812_230342_Sikuliaq.all.mb58.gz 53.95MB Kongsberg multibeam vendor format
0194_20180813_000343_Sikuliaq.all.mb58.gz 22.35MB Kongsberg multibeam vendor format
0195_20180813_013253_Sikuliaq.all.mb58.gz 68.47MB Kongsberg multibeam vendor format
0196_20180813_023253_Sikuliaq.all.mb58.gz 81.68MB Kongsberg multibeam vendor format
0197_20180813_033255_Sikuliaq.all.mb58.gz 40.24MB Kongsberg multibeam vendor format
0198_20180813_050300_Sikuliaq.all.mb58.gz 101.01MB Kongsberg multibeam vendor format
0199_20180813_060301_Sikuliaq.all.mb58.gz 103.67MB Kongsberg multibeam vendor format
0200_20180813_070300_Sikuliaq.all.mb58.gz 108.48MB Kongsberg multibeam vendor format
0201_20180813_080300_Sikuliaq.all.mb58.gz 116.93MB Kongsberg multibeam vendor format
0202_20180813_090300_Sikuliaq.all.mb58.gz 120.63MB Kongsberg multibeam vendor format
0203_20180813_100300_Sikuliaq.all.mb58.gz 123.25MB Kongsberg multibeam vendor format
0204_20180813_110300_Sikuliaq.all.mb58.gz 124.52MB Kongsberg multibeam vendor format
0205_20180813_120300_Sikuliaq.all.mb58.gz 127.34MB Kongsberg multibeam vendor format
0206_20180813_130300_Sikuliaq.all.mb58.gz 82.99MB Kongsberg multibeam vendor format
0207_20180813_140300_Sikuliaq.all.mb58.gz 78.30MB Kongsberg multibeam vendor format
0208_20180813_150300_Sikuliaq.all.mb58.gz 77.00MB Kongsberg multibeam vendor format
0209_20180813_160301_Sikuliaq.all.mb58.gz 75.21MB Kongsberg multibeam vendor format
0210_20180813_170301_Sikuliaq.all.mb58.gz 110.13MB Kongsberg multibeam vendor format
0211_20180813_180301_Sikuliaq.all.mb58.gz 117.90MB Kongsberg multibeam vendor format
0212_20180813_190301_Sikuliaq.all.mb58.gz 115.21MB Kongsberg multibeam vendor format
0213_20180813_200301_Sikuliaq.all.mb58.gz 112.11MB Kongsberg multibeam vendor format
0214_20180813_210301_Sikuliaq.all.mb58.gz 111.16MB Kongsberg multibeam vendor format
0215_20180813_220301_Sikuliaq.all.mb58.gz 113.46MB Kongsberg multibeam vendor format
0216_20180813_230301_Sikuliaq.all.mb58.gz 117.44MB Kongsberg multibeam vendor format
0217_20180814_000301_Sikuliaq.all.mb58.gz 115.86MB Kongsberg multibeam vendor format
0218_20180814_010301_Sikuliaq.all.mb58.gz 106.14MB Kongsberg multibeam vendor format
0219_20180814_020302_Sikuliaq.all.mb58.gz 94.28MB Kongsberg multibeam vendor format
0220_20180814_030301_Sikuliaq.all.mb58.gz 97.52MB Kongsberg multibeam vendor format
0221_20180814_040301_Sikuliaq.all.mb58.gz 78.66MB Kongsberg multibeam vendor format
0222_20180814_050301_Sikuliaq.all.mb58.gz 76.81MB Kongsberg multibeam vendor format
0223_20180814_060301_Sikuliaq.all.mb58.gz 88.91MB Kongsberg multibeam vendor format
0224_20180814_070301_Sikuliaq.all.mb58.gz 90.76MB Kongsberg multibeam vendor format
0225_20180814_080301_Sikuliaq.all.mb58.gz 102.22MB Kongsberg multibeam vendor format
0226_20180814_090301_Sikuliaq.all.mb58.gz 100.10MB Kongsberg multibeam vendor format
0227_20180814_100301_Sikuliaq.all.mb58.gz 101.80MB Kongsberg multibeam vendor format
0228_20180814_110301_Sikuliaq.all.mb58.gz 109.52MB Kongsberg multibeam vendor format
0229_20180814_120301_Sikuliaq.all.mb58.gz 112.01MB Kongsberg multibeam vendor format
0230_20180814_130301_Sikuliaq.all.mb58.gz 114.75MB Kongsberg multibeam vendor format
0231_20180814_140301_Sikuliaq.all.mb58.gz 116.70MB Kongsberg multibeam vendor format
0232_20180814_150301_Sikuliaq.all.mb58.gz 119.41MB Kongsberg multibeam vendor format
0233_20180814_160302_Sikuliaq.all.mb58.gz 116.33MB Kongsberg multibeam vendor format
0234_20180814_170301_Sikuliaq.all.mb58.gz 115.20MB Kongsberg multibeam vendor format
0235_20180814_180301_Sikuliaq.all.mb58.gz 115.46MB Kongsberg multibeam vendor format
0236_20180814_190302_Sikuliaq.all.mb58.gz 103.43MB Kongsberg multibeam vendor format
0237_20180814_200301_Sikuliaq.all.mb58.gz 94.94MB Kongsberg multibeam vendor format
0238_20180814_210301_Sikuliaq.all.mb58.gz 107.69MB Kongsberg multibeam vendor format
0239_20180814_220301_Sikuliaq.all.mb58.gz 117.45MB Kongsberg multibeam vendor format
0240_20180814_230301_Sikuliaq.all.mb58.gz 119.40MB Kongsberg multibeam vendor format
0241_20180815_000302_Sikuliaq.all.mb58.gz 120.37MB Kongsberg multibeam vendor format
0242_20180815_010302_Sikuliaq.all.mb58.gz 120.41MB Kongsberg multibeam vendor format
0243_20180815_020302_Sikuliaq.all.mb58.gz 118.15MB Kongsberg multibeam vendor format
0244_20180815_030302_Sikuliaq.all.mb58.gz 116.86MB Kongsberg multibeam vendor format
0245_20180815_040302_Sikuliaq.all.mb58.gz 119.63MB Kongsberg multibeam vendor format
0246_20180815_050302_Sikuliaq.all.mb58.gz 119.77MB Kongsberg multibeam vendor format
0247_20180815_060302_Sikuliaq.all.mb58.gz 117.03MB Kongsberg multibeam vendor format
0248_20180815_070302_Sikuliaq.all.mb58.gz 121.98MB Kongsberg multibeam vendor format
0249_20180815_080302_Sikuliaq.all.mb58.gz 117.66MB Kongsberg multibeam vendor format
0250_20180815_090302_Sikuliaq.all.mb58.gz 115.78MB Kongsberg multibeam vendor format
0251_20180815_100302_Sikuliaq.all.mb58.gz 120.75MB Kongsberg multibeam vendor format
0252_20180815_110302_Sikuliaq.all.mb58.gz 115.45MB Kongsberg multibeam vendor format
0253_20180815_120302_Sikuliaq.all.mb58.gz 117.28MB Kongsberg multibeam vendor format
0254_20180815_130302_Sikuliaq.all.mb58.gz 118.00MB Kongsberg multibeam vendor format
0255_20180815_140302_Sikuliaq.all.mb58.gz 112.58MB Kongsberg multibeam vendor format
0256_20180815_150302_Sikuliaq.all.mb58.gz 113.86MB Kongsberg multibeam vendor format
0257_20180815_160302_Sikuliaq.all.mb58.gz 107.64MB Kongsberg multibeam vendor format
0258_20180815_170303_Sikuliaq.all.mb58.gz 115.90MB Kongsberg multibeam vendor format
0259_20180815_180302_Sikuliaq.all.mb58.gz 112.00MB Kongsberg multibeam vendor format
0260_20180815_190302_Sikuliaq.all.mb58.gz 111.89MB Kongsberg multibeam vendor format
0261_20180815_200302_Sikuliaq.all.mb58.gz 117.16MB Kongsberg multibeam vendor format
0262_20180815_210302_Sikuliaq.all.mb58.gz 118.14MB Kongsberg multibeam vendor format
0263_20180815_220302_Sikuliaq.all.mb58.gz 119.49MB Kongsberg multibeam vendor format
0264_20180815_230302_Sikuliaq.all.mb58.gz 121.00MB Kongsberg multibeam vendor format
0265_20180816_000302_Sikuliaq.all.mb58.gz 117.97MB Kongsberg multibeam vendor format
0266_20180816_010302_Sikuliaq.all.mb58.gz 118.66MB Kongsberg multibeam vendor format
0267_20180816_020302_Sikuliaq.all.mb58.gz 118.69MB Kongsberg multibeam vendor format
0268_20180816_030303_Sikuliaq.all.mb58.gz 119.38MB Kongsberg multibeam vendor format
0269_20180816_040303_Sikuliaq.all.mb58.gz 123.28MB Kongsberg multibeam vendor format
0270_20180816_050303_Sikuliaq.all.mb58.gz 124.83MB Kongsberg multibeam vendor format
0271_20180816_060303_Sikuliaq.all.mb58.gz 125.09MB Kongsberg multibeam vendor format
0272_20180816_070303_Sikuliaq.all.mb58.gz 125.97MB Kongsberg multibeam vendor format
0273_20180816_080303_Sikuliaq.all.mb58.gz 104.33MB Kongsberg multibeam vendor format
0274_20180816_090303_Sikuliaq.all.mb58.gz 78.86MB Kongsberg multibeam vendor format
0275_20180816_100303_Sikuliaq.all.mb58.gz 78.82MB Kongsberg multibeam vendor format
0276_20180816_110303_Sikuliaq.all.mb58.gz 75.79MB Kongsberg multibeam vendor format
0277_20180816_120303_Sikuliaq.all.mb58.gz 74.79MB Kongsberg multibeam vendor format
0278_20180816_130303_Sikuliaq.all.mb58.gz 74.61MB Kongsberg multibeam vendor format
0279_20180816_140303_Sikuliaq.all.mb58.gz 89.72MB Kongsberg multibeam vendor format
0280_20180816_150303_Sikuliaq.all.mb58.gz 119.77MB Kongsberg multibeam vendor format
0281_20180816_160303_Sikuliaq.all.mb58.gz 107.64MB Kongsberg multibeam vendor format
0282_20180816_170303_Sikuliaq.all.mb58.gz 105.83MB Kongsberg multibeam vendor format
0283_20180816_180303_Sikuliaq.all.mb58.gz 103.38MB Kongsberg multibeam vendor format
0284_20180816_190304_Sikuliaq.all.mb58.gz 100.31MB Kongsberg multibeam vendor format
0285_20180816_200304_Sikuliaq.all.mb58.gz 92.53MB Kongsberg multibeam vendor format
0286_20180816_210303_Sikuliaq.all.mb58.gz 98.97MB Kongsberg multibeam vendor format
0287_20180816_220303_Sikuliaq.all.mb58.gz 100.92MB Kongsberg multibeam vendor format
0288_20180816_230303_Sikuliaq.all.mb58.gz 106.01MB Kongsberg multibeam vendor format
0289_20180817_000303_Sikuliaq.all.mb58.gz 104.81MB Kongsberg multibeam vendor format
0290_20180817_010303_Sikuliaq.all.mb58.gz 99.36MB Kongsberg multibeam vendor format
0291_20180817_020303_Sikuliaq.all.mb58.gz 78.82MB Kongsberg multibeam vendor format
0292_20180817_030303_Sikuliaq.all.mb58.gz 73.71MB Kongsberg multibeam vendor format
0293_20180817_040303_Sikuliaq.all.mb58.gz 84.99MB Kongsberg multibeam vendor format
0294_20180817_050303_Sikuliaq.all.mb58.gz 83.10MB Kongsberg multibeam vendor format
0295_20180817_060305_Sikuliaq.all.mb58.gz 80.26MB Kongsberg multibeam vendor format
0296_20180817_070304_Sikuliaq.all.mb58.gz 62.76MB Kongsberg multibeam vendor format
0296_20180817_080824_Sikuliaq.all.mb58.gz 88.33MB Kongsberg multibeam vendor format
0297_20180817_090823_Sikuliaq.all.mb58.gz 97.47MB Kongsberg multibeam vendor format
0298_20180817_100823_Sikuliaq.all.mb58.gz 98.98MB Kongsberg multibeam vendor format
0299_20180817_110823_Sikuliaq.all.mb58.gz 104.04MB Kongsberg multibeam vendor format
0300_20180817_120824_Sikuliaq.all.mb58.gz 105.00MB Kongsberg multibeam vendor format
0301_20180817_130824_Sikuliaq.all.mb58.gz 118.82MB Kongsberg multibeam vendor format
0302_20180817_140823_Sikuliaq.all.mb58.gz 120.89MB Kongsberg multibeam vendor format
0303_20180817_150823_Sikuliaq.all.mb58.gz 114.08MB Kongsberg multibeam vendor format
0304_20180817_160824_Sikuliaq.all.mb58.gz 94.18MB Kongsberg multibeam vendor format
0305_20180817_170824_Sikuliaq.all.mb58.gz 63.81MB Kongsberg multibeam vendor format
0306_20180817_180824_Sikuliaq.all.mb58.gz 54.62MB Kongsberg multibeam vendor format
0307_20180817_190823_Sikuliaq.all.mb58.gz 51.11MB Kongsberg multibeam vendor format
0308_20180817_200824_Sikuliaq.all.mb58.gz 50.76MB Kongsberg multibeam vendor format
0309_20180817_210826_Sikuliaq.all.mb58.gz 50.92MB Kongsberg multibeam vendor format
0310_20180817_220824_Sikuliaq.all.mb58.gz 31.06MB Kongsberg multibeam vendor format
0311_20180818_002222_Sikuliaq.all.mb58.gz 99.69MB Kongsberg multibeam vendor format
0312_20180818_012223_Sikuliaq.all.mb58.gz 99.40MB Kongsberg multibeam vendor format
0313_20180818_022222_Sikuliaq.all.mb58.gz 99.13MB Kongsberg multibeam vendor format
0314_20180818_032223_Sikuliaq.all.mb58.gz 95.52MB Kongsberg multibeam vendor format
0315_20180818_042223_Sikuliaq.all.mb58.gz 20.42MB Kongsberg multibeam vendor format
0316_20180818_163202_Sikuliaq.all.mb58.gz 95.57MB Kongsberg multibeam vendor format
0317_20180818_173202_Sikuliaq.all.mb58.gz 77.61MB Kongsberg multibeam vendor format
0318_20180818_183203_Sikuliaq.all.mb58.gz 85.98MB Kongsberg multibeam vendor format
0319_20180818_193202_Sikuliaq.all.mb58.gz 100.97MB Kongsberg multibeam vendor format
0320_20180818_203202_Sikuliaq.all.mb58.gz 124.69MB Kongsberg multibeam vendor format
0321_20180818_213202_Sikuliaq.all.mb58.gz 168.13MB Kongsberg multibeam vendor format
0322_20180818_223202_Sikuliaq.all.mb58.gz 100.53MB Kongsberg multibeam vendor format
0323_20180818_233202_Sikuliaq.all.mb58.gz 124.96MB Kongsberg multibeam vendor format
0324_20180819_003203_Sikuliaq.all.mb58.gz 123.25MB Kongsberg multibeam vendor format
0325_20180819_013200_Sikuliaq.all.mb58.gz 98.74MB Kongsberg multibeam vendor format
0326_20180819_023200_Sikuliaq.all.mb58.gz 10.40MB Kongsberg multibeam vendor format
0327_20180819_050801_Sikuliaq.all.mb58.gz 98.88MB Kongsberg multibeam vendor format
0328_20180819_060801_Sikuliaq.all.mb58.gz 101.30MB Kongsberg multibeam vendor format
0329_20180819_070801_Sikuliaq.all.mb58.gz 99.34MB Kongsberg multibeam vendor format
0330_20180819_080801_Sikuliaq.all.mb58.gz 99.44MB Kongsberg multibeam vendor format
0331_20180819_090801_Sikuliaq.all.mb58.gz 101.26MB Kongsberg multibeam vendor format
0332_20180819_100801_Sikuliaq.all.mb58.gz 103.66MB Kongsberg multibeam vendor format
0333_20180819_110801_Sikuliaq.all.mb58.gz 108.77MB Kongsberg multibeam vendor format
0334_20180819_120801_Sikuliaq.all.mb58.gz 102.25MB Kongsberg multibeam vendor format
0335_20180819_130801_Sikuliaq.all.mb58.gz 101.60MB Kongsberg multibeam vendor format
0336_20180819_140801_Sikuliaq.all.mb58.gz 107.13MB Kongsberg multibeam vendor format
0337_20180819_150801_Sikuliaq.all.mb58.gz 119.12MB Kongsberg multibeam vendor format
0338_20180819_160801_Sikuliaq.all.mb58.gz 105.97MB Kongsberg multibeam vendor format
0339_20180819_170803_Sikuliaq.all.mb58.gz 95.25MB Kongsberg multibeam vendor format
0340_20180819_180801_Sikuliaq.all.mb58.gz 99.10MB Kongsberg multibeam vendor format
0341_20180819_190801_Sikuliaq.all.mb58.gz 99.26MB Kongsberg multibeam vendor format
0342_20180819_200802_Sikuliaq.all.mb58.gz 101.93MB Kongsberg multibeam vendor format
0343_20180819_210802_Sikuliaq.all.mb58.gz 108.27MB Kongsberg multibeam vendor format
0344_20180819_220802_Sikuliaq.all.mb58.gz 126.35MB Kongsberg multibeam vendor format
0345_20180819_230802_Sikuliaq.all.mb58.gz 126.64MB Kongsberg multibeam vendor format
0346_20180820_000802_Sikuliaq.all.mb58.gz 125.01MB Kongsberg multibeam vendor format
0347_20180820_010802_Sikuliaq.all.mb58.gz 78.38MB Kongsberg multibeam vendor format
0348_20180820_020802_Sikuliaq.all.mb58.gz 79.23MB Kongsberg multibeam vendor format
0349_20180820_030802_Sikuliaq.all.mb58.gz 79.13MB Kongsberg multibeam vendor format
0350_20180820_040802_Sikuliaq.all.mb58.gz 79.16MB Kongsberg multibeam vendor format
0351_20180820_050802_Sikuliaq.all.mb58.gz 79.14MB Kongsberg multibeam vendor format
0352_20180820_060802_Sikuliaq.all.mb58.gz 79.27MB Kongsberg multibeam vendor format
0353_20180820_070802_Sikuliaq.all.mb58.gz 78.63MB Kongsberg multibeam vendor format
0354_20180820_080802_Sikuliaq.all.mb58.gz 76.58MB Kongsberg multibeam vendor format
0355_20180820_090802_Sikuliaq.all.mb58.gz 74.40MB Kongsberg multibeam vendor format
0356_20180820_100802_Sikuliaq.all.mb58.gz 74.38MB Kongsberg multibeam vendor format
0357_20180820_110802_Sikuliaq.all.mb58.gz 91.01MB Kongsberg multibeam vendor format
0358_20180820_120802_Sikuliaq.all.mb58.gz 122.22MB Kongsberg multibeam vendor format
0359_20180820_130802_Sikuliaq.all.mb58.gz 120.82MB Kongsberg multibeam vendor format
0360_20180820_140802_Sikuliaq.all.mb58.gz 117.69MB Kongsberg multibeam vendor format
0361_20180820_150803_Sikuliaq.all.mb58.gz 108.12MB Kongsberg multibeam vendor format
0362_20180820_160802_Sikuliaq.all.mb58.gz 107.54MB Kongsberg multibeam vendor format
0363_20180820_170802_Sikuliaq.all.mb58.gz 108.73MB Kongsberg multibeam vendor format
0364_20180820_180802_Sikuliaq.all.mb58.gz 99.74MB Kongsberg multibeam vendor format
0365_20180820_190802_Sikuliaq.all.mb58.gz 78.20MB Kongsberg multibeam vendor format
0366_20180820_200805_Sikuliaq.all.mb58.gz 19.84MB Kongsberg multibeam vendor format
0367_20180820_234816_Sikuliaq.all.mb58.gz 83.88MB Kongsberg multibeam vendor format
0368_20180821_004816_Sikuliaq.all.mb58.gz 43.86MB Kongsberg multibeam vendor format
0369_20180821_040329_Sikuliaq.all.mb58.gz 82.38MB Kongsberg multibeam vendor format
0370_20180821_050329_Sikuliaq.all.mb58.gz 67.23MB Kongsberg multibeam vendor format
0371_20180821_060329_Sikuliaq.all.mb58.gz 79.95MB Kongsberg multibeam vendor format
0372_20180821_070329_Sikuliaq.all.mb58.gz 84.02MB Kongsberg multibeam vendor format
0373_20180821_080329_Sikuliaq.all.mb58.gz 92.29MB Kongsberg multibeam vendor format
0374_20180821_090329_Sikuliaq.all.mb58.gz 104.22MB Kongsberg multibeam vendor format
0375_20180821_100330_Sikuliaq.all.mb58.gz 105.30MB Kongsberg multibeam vendor format
0376_20180821_110329_Sikuliaq.all.mb58.gz 106.74MB Kongsberg multibeam vendor format
0377_20180821_120330_Sikuliaq.all.mb58.gz 109.90MB Kongsberg multibeam vendor format
0378_20180821_130329_Sikuliaq.all.mb58.gz 120.54MB Kongsberg multibeam vendor format
0379_20180821_140329_Sikuliaq.all.mb58.gz 123.49MB Kongsberg multibeam vendor format
0380_20180821_150330_Sikuliaq.all.mb58.gz 124.34MB Kongsberg multibeam vendor format
0381_20180821_160329_Sikuliaq.all.mb58.gz 124.63MB Kongsberg multibeam vendor format
0382_20180821_170329_Sikuliaq.all.mb58.gz 126.54MB Kongsberg multibeam vendor format
0383_20180821_180330_Sikuliaq.all.mb58.gz 124.26MB Kongsberg multibeam vendor format
0384_20180821_190330_Sikuliaq.all.mb58.gz 119.46MB Kongsberg multibeam vendor format
0385_20180821_200330_Sikuliaq.all.mb58.gz 104.77MB Kongsberg multibeam vendor format
0386_20180821_210331_Sikuliaq.all.mb58.gz 94.34MB Kongsberg multibeam vendor format
0387_20180821_220330_Sikuliaq.all.mb58.gz 104.58MB Kongsberg multibeam vendor format
0388_20180821_230330_Sikuliaq.all.mb58.gz 101.06MB Kongsberg multibeam vendor format
0389_20180822_000330_Sikuliaq.all.mb58.gz 91.29MB Kongsberg multibeam vendor format
0390_20180822_010330_Sikuliaq.all.mb58.gz 98.85MB Kongsberg multibeam vendor format
0391_20180822_020331_Sikuliaq.all.mb58.gz 38.30MB Kongsberg multibeam vendor format
0392_20180822_061335_Sikuliaq.all.mb58.gz 8.08MB Kongsberg multibeam vendor format
0393_20180822_072502_Sikuliaq.all.mb58.gz 97.63MB Kongsberg multibeam vendor format
0394_20180822_082502_Sikuliaq.all.mb58.gz 111.85MB Kongsberg multibeam vendor format
0395_20180822_092502_Sikuliaq.all.mb58.gz 119.46MB Kongsberg multibeam vendor format
0396_20180822_102502_Sikuliaq.all.mb58.gz 121.86MB Kongsberg multibeam vendor format
0397_20180822_112502_Sikuliaq.all.mb58.gz 122.80MB Kongsberg multibeam vendor format
0398_20180822_122502_Sikuliaq.all.mb58.gz 123.49MB Kongsberg multibeam vendor format
0399_20180822_132502_Sikuliaq.all.mb58.gz 120.77MB Kongsberg multibeam vendor format
0400_20180822_142502_Sikuliaq.all.mb58.gz 75.85MB Kongsberg multibeam vendor format
0401_20180822_152502_Sikuliaq.all.mb58.gz 89.07MB Kongsberg multibeam vendor format
0402_20180822_162502_Sikuliaq.all.mb58.gz 122.35MB Kongsberg multibeam vendor format
0403_20180822_172502_Sikuliaq.all.mb58.gz 113.93MB Kongsberg multibeam vendor format
0404_20180822_182502_Sikuliaq.all.mb58.gz 106.58MB Kongsberg multibeam vendor format
0405_20180822_192502_Sikuliaq.all.mb58.gz 104.80MB Kongsberg multibeam vendor format
0406_20180822_202502_Sikuliaq.all.mb58.gz 84.43MB Kongsberg multibeam vendor format
0407_20180822_221538_Sikuliaq.all.mb58.gz 96.71MB Kongsberg multibeam vendor format
0408_20180822_231537_Sikuliaq.all.mb58.gz 86.97MB Kongsberg multibeam vendor format
0409_20180823_001537_Sikuliaq.all.mb58.gz 71.53MB Kongsberg multibeam vendor format
0410_20180823_011537_Sikuliaq.all.mb58.gz 56.91MB Kongsberg multibeam vendor format
0411_20180823_021537_Sikuliaq.all.mb58.gz 31.62MB Kongsberg multibeam vendor format
0412_20180823_040205_Sikuliaq.all.mb58.gz 71.67MB Kongsberg multibeam vendor format
0413_20180823_050206_Sikuliaq.all.mb58.gz 90.62MB Kongsberg multibeam vendor format
0414_20180823_060205_Sikuliaq.all.mb58.gz 108.39MB Kongsberg multibeam vendor format
0415_20180823_070206_Sikuliaq.all.mb58.gz 100.22MB Kongsberg multibeam vendor format
0416_20180823_080206_Sikuliaq.all.mb58.gz 107.98MB Kongsberg multibeam vendor format
0417_20180823_090206_Sikuliaq.all.mb58.gz 109.82MB Kongsberg multibeam vendor format
0418_20180823_100206_Sikuliaq.all.mb58.gz 116.06MB Kongsberg multibeam vendor format
0419_20180823_110206_Sikuliaq.all.mb58.gz 117.79MB Kongsberg multibeam vendor format
0420_20180823_120206_Sikuliaq.all.mb58.gz 121.39MB Kongsberg multibeam vendor format
0421_20180823_130206_Sikuliaq.all.mb58.gz 123.93MB Kongsberg multibeam vendor format
0422_20180823_140206_Sikuliaq.all.mb58.gz 124.43MB Kongsberg multibeam vendor format
0423_20180823_150206_Sikuliaq.all.mb58.gz 127.40MB Kongsberg multibeam vendor format
0424_20180823_160206_Sikuliaq.all.mb58.gz 123.46MB Kongsberg multibeam vendor format
0425_20180823_170206_Sikuliaq.all.mb58.gz 120.43MB Kongsberg multibeam vendor format
0426_20180823_180206_Sikuliaq.all.mb58.gz 117.70MB Kongsberg multibeam vendor format
0427_20180823_190206_Sikuliaq.all.mb58.gz 117.21MB Kongsberg multibeam vendor format
0428_20180823_200206_Sikuliaq.all.mb58.gz 112.59MB Kongsberg multibeam vendor format
0429_20180823_210206_Sikuliaq.all.mb58.gz 112.97MB Kongsberg multibeam vendor format
0430_20180823_220206_Sikuliaq.all.mb58.gz 118.77MB Kongsberg multibeam vendor format
0431_20180823_230206_Sikuliaq.all.mb58.gz 121.66MB Kongsberg multibeam vendor format
0432_20180824_000206_Sikuliaq.all.mb58.gz 122.72MB Kongsberg multibeam vendor format
0433_20180824_010206_Sikuliaq.all.mb58.gz 121.13MB Kongsberg multibeam vendor format
0434_20180824_020206_Sikuliaq.all.mb58.gz 113.03MB Kongsberg multibeam vendor format
0435_20180824_030206_Sikuliaq.all.mb58.gz 111.53MB Kongsberg multibeam vendor format
0436_20180824_040207_Sikuliaq.all.mb58.gz 104.57MB Kongsberg multibeam vendor format
0437_20180824_050206_Sikuliaq.all.mb58.gz 101.92MB Kongsberg multibeam vendor format
0438_20180824_060206_Sikuliaq.all.mb58.gz 94.34MB Kongsberg multibeam vendor format
0439_20180824_070206_Sikuliaq.all.mb58.gz 89.04MB Kongsberg multibeam vendor format
0440_20180824_080207_Sikuliaq.all.mb58.gz 102.11MB Kongsberg multibeam vendor format
0441_20180824_090206_Sikuliaq.all.mb58.gz 95.43MB Kongsberg multibeam vendor format
0442_20180824_100208_Sikuliaq.all.mb58.gz 93.47MB Kongsberg multibeam vendor format
0443_20180824_110207_Sikuliaq.all.mb58.gz 106.08MB Kongsberg multibeam vendor format
0444_20180824_120206_Sikuliaq.all.mb58.gz 106.80MB Kongsberg multibeam vendor format
0445_20180824_130208_Sikuliaq.all.mb58.gz 101.58MB Kongsberg multibeam vendor format
0446_20180824_140207_Sikuliaq.all.mb58.gz 104.22MB Kongsberg multibeam vendor format
0447_20180824_150207_Sikuliaq.all.mb58.gz 104.93MB Kongsberg multibeam vendor format
0448_20180824_160207_Sikuliaq.all.mb58.gz 107.28MB Kongsberg multibeam vendor format
0449_20180824_170207_Sikuliaq.all.mb58.gz 114.89MB Kongsberg multibeam vendor format
0450_20180824_180207_Sikuliaq.all.mb58.gz 121.11MB Kongsberg multibeam vendor format
0451_20180824_190207_Sikuliaq.all.mb58.gz 121.45MB Kongsberg multibeam vendor format
0452_20180824_200207_Sikuliaq.all.mb58.gz 122.65MB Kongsberg multibeam vendor format
0453_20180824_210207_Sikuliaq.all.mb58.gz 124.06MB Kongsberg multibeam vendor format
0454_20180824_220207_Sikuliaq.all.mb58.gz 123.95MB Kongsberg multibeam vendor format
0455_20180824_230207_Sikuliaq.all.mb58.gz 124.11MB Kongsberg multibeam vendor format
0456_20180825_000207_Sikuliaq.all.mb58.gz 124.73MB Kongsberg multibeam vendor format
0457_20180825_010207_Sikuliaq.all.mb58.gz 124.67MB Kongsberg multibeam vendor format
0458_20180825_020207_Sikuliaq.all.mb58.gz 124.47MB Kongsberg multibeam vendor format
0459_20180825_030207_Sikuliaq.all.mb58.gz 124.32MB Kongsberg multibeam vendor format
0460_20180825_040207_Sikuliaq.all.mb58.gz 124.65MB Kongsberg multibeam vendor format
0461_20180825_050207_Sikuliaq.all.mb58.gz 125.32MB Kongsberg multibeam vendor format
0462_20180825_060207_Sikuliaq.all.mb58.gz 125.33MB Kongsberg multibeam vendor format
0463_20180825_070207_Sikuliaq.all.mb58.gz 125.56MB Kongsberg multibeam vendor format
0464_20180825_080207_Sikuliaq.all.mb58.gz 125.64MB Kongsberg multibeam vendor format
0465_20180825_090207_Sikuliaq.all.mb58.gz 126.04MB Kongsberg multibeam vendor format
0466_20180825_100207_Sikuliaq.all.mb58.gz 126.63MB Kongsberg multibeam vendor format
0467_20180825_110207_Sikuliaq.all.mb58.gz 127.25MB Kongsberg multibeam vendor format
0468_20180825_120207_Sikuliaq.all.mb58.gz 126.88MB Kongsberg multibeam vendor format
0469_20180825_130207_Sikuliaq.all.mb58.gz 126.63MB Kongsberg multibeam vendor format
0470_20180825_140207_Sikuliaq.all.mb58.gz 126.59MB Kongsberg multibeam vendor format
0471_20180825_150207_Sikuliaq.all.mb58.gz 126.49MB Kongsberg multibeam vendor format
0472_20180825_160207_Sikuliaq.all.mb58.gz 127.59MB Kongsberg multibeam vendor format
0473_20180825_170207_Sikuliaq.all.mb58.gz 126.34MB Kongsberg multibeam vendor format
0474_20180825_180208_Sikuliaq.all.mb58.gz 126.13MB Kongsberg multibeam vendor format
0475_20180825_190208_Sikuliaq.all.mb58.gz 125.88MB Kongsberg multibeam vendor format
0476_20180825_200208_Sikuliaq.all.mb58.gz 125.79MB Kongsberg multibeam vendor format
0477_20180825_210208_Sikuliaq.all.mb58.gz 125.52MB Kongsberg multibeam vendor format
0478_20180825_220208_Sikuliaq.all.mb58.gz 124.70MB Kongsberg multibeam vendor format
0479_20180825_230208_Sikuliaq.all.mb58.gz 123.51MB Kongsberg multibeam vendor format
0480_20180826_000208_Sikuliaq.all.mb58.gz 123.49MB Kongsberg multibeam vendor format
0481_20180826_010203_Sikuliaq.all.mb58.gz 123.60MB Kongsberg multibeam vendor format
0482_20180826_020203_Sikuliaq.all.mb58.gz 123.51MB Kongsberg multibeam vendor format
0483_20180826_030203_Sikuliaq.all.mb58.gz 123.18MB Kongsberg multibeam vendor format
0484_20180826_040203_Sikuliaq.all.mb58.gz 123.01MB Kongsberg multibeam vendor format
0485_20180826_050203_Sikuliaq.all.mb58.gz 122.15MB Kongsberg multibeam vendor format
0486_20180826_060203_Sikuliaq.all.mb58.gz 121.20MB Kongsberg multibeam vendor format
0487_20180826_070203_Sikuliaq.all.mb58.gz 121.35MB Kongsberg multibeam vendor format
0488_20180826_080203_Sikuliaq.all.mb58.gz 122.72MB Kongsberg multibeam vendor format
0489_20180826_090204_Sikuliaq.all.mb58.gz 123.47MB Kongsberg multibeam vendor format
0490_20180826_100203_Sikuliaq.all.mb58.gz 123.70MB Kongsberg multibeam vendor format
0491_20180826_110203_Sikuliaq.all.mb58.gz 124.24MB Kongsberg multibeam vendor format
0492_20180826_120203_Sikuliaq.all.mb58.gz 125.14MB Kongsberg multibeam vendor format
0493_20180826_130203_Sikuliaq.all.mb58.gz 104.65MB Kongsberg multibeam vendor format
0494_20180826_140204_Sikuliaq.all.mb58.gz 77.14MB Kongsberg multibeam vendor format
0495_20180826_150204_Sikuliaq.all.mb58.gz 76.59MB Kongsberg multibeam vendor format
0496_20180826_160204_Sikuliaq.all.mb58.gz 74.74MB Kongsberg multibeam vendor format
0497_20180826_170204_Sikuliaq.all.mb58.gz 93.22MB Kongsberg multibeam vendor format
0498_20180826_180204_Sikuliaq.all.mb58.gz 123.70MB Kongsberg multibeam vendor format
0499_20180826_190204_Sikuliaq.all.mb58.gz 145.04MB Kongsberg multibeam vendor format
0500_20180826_200204_Sikuliaq.all.mb58.gz 145.46MB Kongsberg multibeam vendor format
0501_20180826_210204_Sikuliaq.all.mb58.gz 145.27MB Kongsberg multibeam vendor format
0502_20180826_220204_Sikuliaq.all.mb58.gz 144.74MB Kongsberg multibeam vendor format
0503_20180826_230204_Sikuliaq.all.mb58.gz 145.37MB Kongsberg multibeam vendor format
0504_20180827_000204_Sikuliaq.all.mb58.gz 144.82MB Kongsberg multibeam vendor format
0505_20180827_010204_Sikuliaq.all.mb58.gz 85.73MB Kongsberg multibeam vendor format
0506_20180827_020204_Sikuliaq.all.mb58.gz 83.91MB Kongsberg multibeam vendor format
0507_20180827_030204_Sikuliaq.all.mb58.gz 83.67MB Kongsberg multibeam vendor format
0508_20180827_040204_Sikuliaq.all.mb58.gz 83.74MB Kongsberg multibeam vendor format
0509_20180827_050204_Sikuliaq.all.mb58.gz 83.72MB Kongsberg multibeam vendor format
0510_20180827_060204_Sikuliaq.all.mb58.gz 83.77MB Kongsberg multibeam vendor format
0511_20180827_070204_Sikuliaq.all.mb58.gz 83.80MB Kongsberg multibeam vendor format
0512_20180827_080204_Sikuliaq.all.mb58.gz 83.80MB Kongsberg multibeam vendor format
0513_20180827_090204_Sikuliaq.all.mb58.gz 83.85MB Kongsberg multibeam vendor format
0514_20180827_100204_Sikuliaq.all.mb58.gz 83.87MB Kongsberg multibeam vendor format
0515_20180827_110205_Sikuliaq.all.mb58.gz 83.81MB Kongsberg multibeam vendor format
0516_20180827_120205_Sikuliaq.all.mb58.gz 83.83MB Kongsberg multibeam vendor format
0517_20180827_130205_Sikuliaq.all.mb58.gz 83.85MB Kongsberg multibeam vendor format
0518_20180827_140205_Sikuliaq.all.mb58.gz 33.01MB Kongsberg multibeam vendor format

Metadata Files: 6

Files File Size Description
SKQ201818S.xml 71.9KB XML metadata file
bag-info.txt 1.0KB Informal metadata text
bagit.txt 55 Bytes Informal metadata text
file-info.txt 46.6KB Informal metadata text
manifest-md5.txt 37.1KB Informal metadata text
tagmanifest-md5.txt 186 Bytes Informal metadata text

Water Column Sonar Data

Water Column Sonar Data Available: WCSD Map Viewer